This is the latest recevied weather packets stored in our database for station/object KD5FHA. If no packets are shown the sender has not sent any weather packets the latest 10 day(s).
| Time | Temp. | Humidity | Pressure | Rain* | Wind** | Luminosity | Snow |
|---|---|---|---|---|---|---|---|
| 1778018083 | 31.11° C | 59% | 1004.4 hPa | 0 mm | - | 417 W/m² | - |
| 1778017781 | 31.67° C | 58% | 1004.5 hPa | 0 mm | - | 276 W/m² | - |
| 1778017478 | 32.78° C | 56% | 1004.7 hPa | 0 mm | - | 483 W/m² | - |
| 1778017175 | 32.78° C | 56% | 1004.7 hPa | 0 mm | - | 435 W/m² | - |
| 1778016873 | 32.78° C | 55% | 1004.6 hPa | 0 mm | - | 504 W/m² | - |
| 1778016569 | 32.22° C | 57% | 1004.7 hPa | 0 mm | - | 478 W/m² | - |
| 1778016266 | 32.22° C | 56% | 1004.7 hPa | 0 mm | - | 415 W/m² | - |
| 1778015962 | 32.22° C | 55% | 1004.9 hPa | 0 mm | - | 381 W/m² | - |
| 1778015660 | 32.78° C | 53% | 1004.8 hPa | 0 mm | - | 615 W/m² | - |
| 1778015356 | 32.78° C | 54% | 1004.8 hPa | 0 mm | - | 792 W/m² | - |
| 1778015054 | 32.22° C | 56% | 1005.1 hPa | 0 mm | - | 314 W/m² | - |
| 1778014750 | 33.33° C | 53% | 1005.4 hPa | 0 mm | - | 866 W/m² | - |
| 1778014449 | 32.78° C | 53% | 1005.2 hPa | 0 mm | - | 702 W/m² | - |
| 1778014145 | 32.78° C | 54% | 1005.3 hPa | 0 mm | - | 887 W/m² | - |
| 1778013843 | 32.22° C | 55% | 1005.2 hPa | 0 mm | - | 428 W/m² | - |
| 1778013540 | 30.56° C | 58% | 1005.3 hPa | 0 mm | - | 801 W/m² | - |
| 1778013236 | 31.11° C | 58% | 1005.4 hPa | 0 mm | - | 227 W/m² | - |
| 1778012933 | 31.67° C | 57% | 1005.5 hPa | 0 mm | - | 382 W/m² | - |
| 1778012629 | 31.67° C | 57% | 1005.4 hPa | 0 mm | - | 955 W/m² | - |
| 1778012326 | 31.67° C | 59% | 1005.5 hPa | 0 mm | - | 566 W/m² | - |
| 1778012023 | 32.22° C | 56% | 1005.4 hPa | 0 mm | - | 896 W/m² | - |
| 1778011721 | 31.67° C | 59% | 1005.6 hPa | 0 mm | - | 963 W/m² | - |
| 1778011418 | 31.11° C | 59% | 1005.5 hPa | 0 mm | - | 885 W/m² | - |
| 1778011113 | 31.11° C | 61% | 1005.8 hPa | 0 mm | - | 921 W/m² | - |
| 1778010811 | 30.56° C | 61% | 1005.7 hPa | 0 mm | - | 745 W/m² | - |
* Rain latest hour (hover to see other rain measurements)
** Current wind speed in m/s (hover to see current wind gust speed)